Weather in Sovetskoye

Russia / Kurgan Oblast     54°37′27″N   64°31′46″E
temp.,
°C
wind,
m/s
gust,
m/s
humid.,
%
clouds,
%
prec.,
mm/h
press.,
hPa
HPBL,
m
14 august, sun
sun1423:00+18n48590 0.0 1014158
02:00+13nnw48593 0.0 1016141
05:00+12nnw33675 0.0 101736
08:00+16nnw45575 0.0 1019348
11:00+19nnw67440 0.0 10191612
14:00+21nnw67371 0.0 10182000
17:00+21nnw67369 0.0 10182172
20:00+16nw34544 0.0 101951
15 august, mon
mon1523:00+13n33584 0.0 101939
02:00+12sw11655 0.0 102010
05:00+12ssw116296 0.0 102114
08:00+16n125492 0.0 1021199
11:00+18nne2245100 0.0 1022737
14:00+21nw24365 0.0 10212004
17:00+22nnw353444 0.0 10202371
20:00+17nnw22548 0.0 102012
16 august, tue
tue1623:00+16wsw335396 0.0 102029
02:00+16nnw3453100 0.0 102084
05:00+13n336429 0.0 102144
08:00+17n23510 0.0 1022246
11:00+21nw56385 0.0 10221624
14:00+22nw683711 0.0 10202144
17:00+21nnw584456 0.0 10201466
20:00+18nw225793 0.0 102013
17 august, wed
wed1723:00+17wnw335595 0.0 102046
02:00+14n486173 0.0 1021136
05:00+11n3667100 0.0 1022105
08:00+14n2356100 0.0 1023239
11:00+18nnw464282 0.0 10221233
14:00+19nw674287 0.0 10211635
17:00+18nnw6942100 0.0 10211354
20:00+16n4849100 0.0 1020485
18 august, thu
thu1823:00+13nnw2357100 0.0 102066
02:00+13nw3660100 0.0 1019200
05:00+12nw356983 0.1 1019239
08:00+13n3563100 0.0 1019364
11:00+16n4545100 0.0 10191378
14:00+16nnw6646100 0.0 10191559
17:00+17nnw663665 0.0 10182135
20:00+13nne5104344 0.0 1019342